Regional Weather Roundup
Issued by NWS Columbia, SC

Home | Current Version | Previous Version | Text Only | Print | Product List | Glossary On
Versions: 1 2 3 4 5 6 7 8 9 10 11 12 13 14 15 16 17 18 19 20 21 22 23 24 25 26 27
000
ASUS42 KCAE 250610
RWRCAE
REGIONAL WEATHER ROUNDUP
NATIONAL WEATHER SERVICE COLUMBIA SC
200 AM EDT WED MAY 25 2016

NOTE: "FAIR" INDICATES FEW OR NO CLOUDS BELOW 12,000 FEET WITH NO
SIGNIFICANT WEATHER AND/OR OBSTRUCTIONS TO VISIBILITY.

NOT ALL STATIONS ARE QUALITY CONTROLLED BY THE NATIONAL
WEATHER SERVICE. USE DATA WITH CAUTION...ESPECIALLY
DEWPOINT OBSERVATIONS.

SCZ001>056-GAZ040-063>065-077-250700-
...UPSTATE SOUTH CAROLINA...

CITY           SKY/WX    TMP DP  RH WIND       PRES   REMARKS
ANDERSON       CLEAR     62  55  77 CALM      30.17R
6HR MIN TEMP:  60; 6HR MAX TEMP:  78;

LIBERTY        CLEAR     55  54  95 CALM      30.17S
6HR MIN TEMP:  55; 6HR MAX TEMP:  76;

SPARTANBURG    MOCLDY    61  54  77 CALM      30.17S
CLEMSON        CLEAR     65  56  72 NW5       30.19R
6HR MIN TEMP:  64; 6HR MAX TEMP:  79;

GREENVILLE     CLEAR     68  53  58 S5        30.19R
6HR MIN TEMP:  66; 6HR MAX TEMP:  79;

GREENWOOD      CLEAR     63  55  75 CALM      30.18S
6HR MIN TEMP:  62; 6HR MAX TEMP:  75;

GREER          CLEAR     62  54  74 CALM      30.17R
6HR MIN TEMP:  61; 6HR MAX TEMP:  77;

ROCK HILL      MOCLDY    60  56  86 SW6       30.17S
6HR MIN TEMP:  59; 6HR MAX TEMP:  74;

CHESTER        CLEAR     63  54  72 S5        30.18S
LAURENS        CLEAR     61  55  82 S3        30.17S


...CENTRAL SOUTH CAROLINA...

CITY           SKY/WX    TMP DP  RH WIND       PRES   REMARKS
COLUMBIA APT   CLEAR     66  60  81 W5        30.16S
6HR MIN TEMP:  66; 6HR MAX TEMP:  82;

COLUMBIA OWENS CLEAR     67  62  84 CALM      30.18S
6HR MIN TEMP:  66; 6HR MAX TEMP:  82;

MCENTIRE ANGB  CLEAR     62  60  96 CALM      30.18S
6HR MIN TEMP:  62; 6HR MAX TEMP:  76; 6HR PCP: TRACE;

ORANGEBURG     PTCLDY    65  63  93 CALM      30.18S
6HR MIN TEMP:  65; 6HR MAX TEMP:  78;

SUMTER SHAW    CLEAR     65  61  87 S3        30.16S
6HR MIN TEMP:  65; 6HR MAX TEMP:  78;

NEWBERRY       MOCLDY    61  57  88 S5        30.20R
AIKEN          FAIR      63  61  94 S5        30.21S
BARNWELL       FAIR      70  70 100 CALM      30.19S
MANNING        FAIR      68  63  83 CALM      30.18F
LANCASTER      CLEAR     59  59 100 CALM      30.17F
WINNSBORO      CLEAR     64  57  77 SE7       30.17S


...EASTERN AND COASTAL SOUTH CAROLINA...

CITY           SKY/WX    TMP DP  RH WIND       PRES   REMARKS
MYRTLE BEACH   PTCLDY    66  55  68 SW3       30.21S
N MYRTLE BCH   PTCLDY    69  63  81 SW5       30.18S
6HR MIN TEMP:  67; 6HR MAX TEMP:  73;

CONWAY         FAIR      59  55  88 CALM      30.19S
MARION         FAIR      63  57  82 S3        30.18S
HARTSVILLE     FAIR      63  59  88 CALM      30.17S
FLORENCE       CLEAR     65  59  81 SW6       30.18S
6HR MIN TEMP:  65; 6HR MAX TEMP:  78;

DARLINGTON     CLEAR     64  60  87 S6        30.18S
6HR MIN TEMP:  64; 6HR MAX TEMP:  76;

CHARLESTON APT PTCLDY    69  63  81 CALM      30.18F
6HR MIN TEMP:  67; 6HR MAX TEMP:  74;

MOUNT PLEASANT FAIR      64  63  94 CALM      30.19S
WALTERBORO     PTCLDY    66  66 100 CALM      30.19S
BEAUFORT       PTCLDY    69  66  90 CALM      30.18S
6HR MIN TEMP:  68; 6HR MAX TEMP:  76;



...EASTERN GEORGIA...

CITY           SKY/WX    TMP DP  RH WIND       PRES   REMARKS
AUGUSTA BUSH F CLEAR     59  59 100 S5        30.16F
6HR MIN TEMP:  59; 6HR MAX TEMP:  80;

AUGUSTA DANIEL CLEAR     68  59  73 S5        30.18S
6HR MIN TEMP:  68; 6HR MAX TEMP:  83;

THOMSON        CLEAR     61  60  97 CALM      30.21S
6HR MIN TEMP:  61; 6HR MAX TEMP:  79;

WASHINGTON     FAIR      64  59  82 SW3       30.17S
CLAXTON        CLOUDY    66  65  97 CALM      30.19S
6HR MIN TEMP:  66; 6HR MAX TEMP:  78;

SYLVANIA       MOCLDY    69  67  92 CALM      30.20R
6HR MIN TEMP:  69; 6HR MAX TEMP:  81;

STATESBORO     PTCLDY    69  67  95 CALM      30.19S
6HR MIN TEMP:  67; 6HR MAX TEMP:  80;

SAVANNAH       MOCLDY    71  66  84 CALM      30.18F
6HR MIN TEMP:  70; 6HR MAX TEMP:  76;



...SOUTHERN NORTH CAROLINA...

CITY           SKY/WX    TMP DP  RH WIND       PRES   REMARKS
CHARLOTTE      PTCLDY    66  53  63 CALM      30.16F
6HR MIN TEMP:  65; 6HR MAX TEMP:  75;

MONROE         PTCLDY    61  55  81 CALM      30.16F
6HR MIN TEMP:  60; 6HR MAX TEMP:  74;

WADESBORO      CLEAR     56  54  91 CALM      30.16S
6HR MIN TEMP:  56; 6HR MAX TEMP:  77;

ROCKINGHAM     CLEAR     64  57  77 S5        30.17S
6HR MIN TEMP:  64; 6HR MAX TEMP:  76;

RUTHERFORDTON  CLEAR     57  57 100 CALM      30.19S
6HR MIN TEMP:  57; 6HR MAX TEMP:  75;

ASHEVILLE      CLEAR     57  51  80 CALM      30.24S
6HR MIN TEMP:  57; 6HR MAX TEMP:  73;


$$




USA.gov is the U.S. government's official web portal to all federal, state and local government web resources and services.